This demonstration page uses our WeatherBlox Daily Observations layout. Learn more.

Left ArrowRight Arrow

Hourly Observations for May 25, 2022

Temp ( °F °C ) Dew Point ( °F °C ) Humidity (%) Winds ( mph kmh ) Pressure ( in mb ) Visibility ( mi km ) Precip ( " mm )
12:15 am 00:15 undefined 64 17.7 54 12.1 70 70 Calm 30.07 1018 10 16 0.00 0.00
12:35 am 00:35 undefined 64 17.9 54 12.3 70 70 ESE 10 17 30.07 1018 10 16 0.00 0.00
12:55 am 00:55 undefined 64 18 55 12.7 71 71 ESE 9 15 30.07 1018 10 16 0.00 0.00
1:15 am 01:15 undefined 64 17.5 55 13 75 75 ESE 8 13 30.06 1018 10 16 0.00 0.00
1:35 am 01:35 undefined 64 17.5 56 13.4 77 77 ESE 8 13 30.05 1018 10 16 0.00 0.00
1:55 am 01:55 undefined 64 17.7 57 14 79 79 SE 12 19 30.05 1018 10 16 0.00 0.00
2:15 am 02:15 undefined 64 17.6 58 14.5 82 82 SE 13 20 30.04 1017 10 16 0.00 0.00
2:35 am 02:35 undefined 63 17.4 58 14.5 83 83 SE 7 11 30.04 1017 10 16 0.00 0.00
2:55 am 02:55 undefined 63 17.4 58 14.6 84 84 SE 14 22 30.03 1017 10 16 0.00 0.00
3:15 am 03:15 undefined 63 17.3 58 14.7 85 85 ESE 10 17 30.03 1017 10 16 0.00 0.00
3:35 am 03:35 undefined 63 17.2 58 14.7 85 85 SE 12 19 30.02 1016 10 16 0.00 0.00
3:55 am 03:55 Mostly Clear with Rain 62 16.7 59 15.1 90 90 SE 8 13 30.02 1017 7 11 0.01 0.25
4:15 am 04:15 Mostly Clear with Rain 62 16.5 60 15.3 93 93 SE 3 6 30.03 1017 7 11 0.02 0.51
4:35 am 04:35 Mostly Clear with Heavy Rain 61 16.3 60 15.3 94 94 SE 9 15 30.02 1017 7 11 0.04 1.02
4:55 am 04:55 Mostly Clear with Rain 61 16.1 60 15.5 96 96 ESE 9 15 30.02 1017 10 16 0.07 1.78
5:15 am 05:15 Mostly Clear with Rain 61 16.1 60 15.5 96 96 ESE 9 15 30.01 1016 10 16 0.00 0.00
5:35 am 05:35 Mostly Clear with Light Rain 61 16.1 60 15.6 97 97 ESE 7 11 30.01 1016 7 11 0.01 0.25
5:55 am 05:55 Mostly Clear with Light Rain 61 16.1 60 15.6 97 97 Calm 30.01 1016 7 11 0.02 0.51
6:15 am 06:15 undefined 61 16.2 60 15.7 97 97 SE 7 11 30.01 1016 7 11 0.00 0.00
6:35 am 06:35 Partly Cloudy with Rain 62 16.5 60 15.7 95 95 SE 9 15 30.01 1016 3 5 0.00 0.00
6:55 am 06:55 Partly Cloudy with Light Rain 62 16.5 61 16 97 97 Calm 30.02 1017 3 4 0.00 0.00
7:15 am 07:15 undefined 62 16.9 61 16.3 96 96 Calm 30.02 1016 7 11 0.00 0.00
7:35 am 07:35 undefined 63 17.1 62 16.5 96 96 SSE 10 17 30.02 1016 10 16 0.00 0.00
7:55 am 07:55 undefined 64 17.5 62 16.7 95 95 SE 9 15 30.01 1016 10 16 0.00 0.00
8:15 am 08:15 Partly Cloudy with Drizzle 64 17.6 63 17 96 96 SSE 9 15 30.01 1016 10 16 0.00 0.00
8:35 am 08:35 Partly Cloudy with Light Rain 64 17.7 63 17.1 96 96 SSE 5 7 30.01 1016 7 11 0.01 0.25
8:55 am 08:55 undefined 64 17.9 63 17.2 96 96 SSE 10 17 30.01 1016 10 16 0.01 0.25
9:15 am 09:15 undefined 64 18 63 17.2 95 95 SSE 7 11 30.01 1016 10 16 0.00 0.00
9:35 am 09:35 undefined 66 18.7 64 17.8 95 95 SSE 9 15 30.01 1016 10 16 0.00 0.00
9:55 am 09:55 undefined 66 18.9 64 17.8 93 93 SSE 10 17 30.01 1016 10 16 0.00 0.00
10:15 am 10:15 undefined 67 19.6 65 18.1 91 91 S 12 19 30.01 1016 10 16 0.00 0.00
10:35 am 10:35 undefined 68 20.1 65 18.2 89 89 S 13 20 30.01 1016 10 16 0.00 0.00
10:55 am 10:55 Partly Cloudy with Rain 67 19.4 65 18.1 92 92 S 9 15 30.01 1016 7 11 0.01 0.25
11:15 am 11:15 Partly Cloudy with Light Rain 67 19.6 66 18.8 95 95 Calm 30.00 1016 7 11 0.03 0.76
11:35 am 11:35 undefined 69 20.5 67 19.4 93 93 Calm 29.99 1016 10 16 0.03 0.76
11:55 am 11:55 undefined 71 21.6 67 19.7 89 89 SE 13 20 29.97 1015 10 16 0.03 0.76
12:15 pm 12:15 undefined 73 22.5 69 20.5 89 89 SE 10 17 29.97 1015 10 16 0.00 0.00
12:35 pm 12:35 undefined 73 22.6 68 19.9 85 85 SSE 12 19 29.97 1015 10 16 0.00 0.00
12:55 pm 12:55 undefined 73 22.9 68 20.2 85 85 SE 13 20 29.96 1014 10 16 0.00 0.00
1:15 pm 13:15 undefined 76 24.3 69 20.6 80 80 SSE 13 20 29.94 1014 10 16 0.00 0.00
1:35 pm 13:35 undefined 75 24 69 20.5 81 81 SSE 12 19 29.93 1014 10 16 0.00 0.00
1:55 pm 13:55 undefined 77 25.2 69 20.5 75 75 S 15 24 29.92 1013 10 16 0.00 0.00
2:15 pm 14:15 undefined 78 25.8 69 20.6 73 73 SSE 15 24 29.92 1013 10 16 0.00 0.00
2:35 pm 14:35 undefined 79 26.1 68 20.1 70 70 S 15 24 29.92 1013 10 16 0.00 0.00
2:55 pm 14:55 undefined 80 26.6 68 20.2 68 68 SSE 15 24 29.90 1013 10 16 0.00 0.00
3:15 pm 15:15 undefined 81 27 68 19.8 65 65 S 16 26 29.90 1013 10 16 0.00 0.00
3:35 pm 15:35 undefined 80 26.5 67 19.2 64 64 SSE 16 26 29.90 1012 10 16 0.00 0.00
3:55 pm 15:55 undefined 81 27.1 68 19.8 64 64 S 15 24 29.87 1012 10 16 0.00 0.00
4:15 pm 16:15 undefined 82 27.6 68 19.9 63 63 S 13 20 29.86 1011 10 16 0.00 0.00
4:35 pm 16:35 undefined 80 26.9 66 19 62 62 SSE 17 28 29.85 1011 10 16 0.00 0.00
4:55 pm 16:55 undefined 80 26.8 67 19.5 64 64 S 14 22 29.84 1011 10 16 0.00 0.00
5:15 pm 17:15 undefined 82 27.5 66 18.9 59 59 S 20 31 29.84 1011 10 16 0.00 0.00
5:35 pm 17:35 undefined 81 27.3 65 18.4 58 58 S 18 30 29.83 1010 10 16 0.00 0.00
5:55 pm 17:55 undefined 81 27 65 18.4 59 59 S 14 22 29.82 1010 10 16 0.00 0.00
6:15 pm 18:15 undefined 79 26 66 18.9 65 65 SSE 14 22 29.84 1010 10 16 0.00 0.00
6:35 pm 18:35 Partly Cloudy with Rain 74 23.5 67 19.3 77 77 SSW 24 39 29.87 1012 10 16 0.00 0.00
6:55 pm 18:55 undefined 70 21 67 19.5 91 91 S 13 20 29.88 1012 10 16 0.03 0.76
7:15 pm 19:15 Partly Cloudy with Light Rain 71 21.5 67 19.7 90 90 S 10 17 29.87 1012 10 16 0.00 0.00
7:35 pm 19:35 undefined 71 21.6 67 19.6 88 88 S 12 19 29.86 1011 10 16 0.00 0.00
7:55 pm 19:55 undefined 71 21.6 67 19.4 87 87 SSE 8 13 29.86 1011 10 16 0.00 0.00
8:15 pm 20:15 undefined 71 21.8 65 18.6 82 82 S 14 22 29.86 1011 10 16 0.00 0.00
8:35 pm 20:35 undefined 71 21.7 65 18.4 82 82 S 16 26 29.86 1011 10 16 0.00 0.00
8:55 pm 20:55 undefined 71 21.8 65 18.4 81 81 S 16 26 29.86 1011 10 16 0.00 0.00
9:15 pm 21:15 undefined 71 21.4 65 18.6 84 84 S 10 17 29.86 1011 10 16 0.00 0.00
9:35 pm 21:35 undefined 70 21.2 66 18.7 86 86 S 12 19 29.86 1011 10 16 0.00 0.00
9:55 pm 21:55 undefined 70 21 65 18.6 86 86 S 13 20 29.86 1011 10 16 0.00 0.00
10:15 pm 22:15 undefined 70 21 65 18.6 86 86 SSE 14 22 29.86 1011 10 16 0.00 0.00
10:35 pm 22:35 undefined 70 21.2 65 18.6 85 85 S 15 24 29.86 1011 10 16 0.00 0.00
10:55 pm 22:55 undefined 70 21.2 65 18.6 85 85 S 15 24 29.86 1011 10 16 0.00 0.00
11:15 pm 23:15 undefined 70 20.9 65 18.6 87 87 S 14 22 29.86 1011 10 16 0.00 0.00
11:35 pm 23:35 undefined 69 20.5 65 18.5 88 88 S 12 19 29.86 1011 10 16 0.00 0.00
11:55 pm 23:55 undefined 69 20.6 65 18.5 88 88 S 14 22 29.86 1011 10 16 0.00 0.00

Powered by AerisWeather